THAICOM 4

Last updated on Tue Sep 22 2026 00:03:11 GMT+0000 (Coordinated Universal Time)

1 28786U 05028A 26264.59270889 -.00000366 00000+0 00000+0 0 9998 2 28786 0.4871 84.4725 0000409 59.7096 189.1534 1.00270701 53212
UTC large
Height (km)
Speed (km/s)
/
Latitude / Longitude
Inclination (degrees)
Orbital Period (minutes)
Azimuth
Elevation
Range (km)
Doppler Factor

Next 0 passes for location: London (51.5072 / 0.1276)

No passes found over London.
THAICOM 4